Augusta, Maine, United States (04330)
Lat: 44.31N, Lon: 69.78W
Wx Zone: MEZ021
Local Info
Past Weather Observations for Monday, May 2, 2016

NOTE: This archive is for the closest National Weather Service station to Augusta. Information may differ from the station used for current weather conditions.

Click here for Long-term Archive

Time Weather Temperature Dewpoint Humidity Pressure Winds Precip Visibility
23:53
Overcast
Light Rain
43°F / 6°C 32°F / 0°C 66% 30.18 in
(1022 mb)
Calm 0.00 in
(0.00 mm)
10SM
22:53
Overcast
43°F / 6°C 30°F / -1°C 61% 30.18 in
(1022 mb)
Calm - 10SM
21:53
Overcast
45°F / 7°C 34°F / 1°C 66% 30.18 in
(1022 mb)
SE 3.5 mph
(SE 6 kph)
- 10SM
20:53
Overcast
45°F / 7°C 30°F / -1°C 57% 30.18 in
(1022 mb)
S 3.5 mph
(S 6 kph)
- 10SM
19:53
Overcast
45°F / 7°C 28°F / -2°C 53% 30.21 in
(1023 mb)
Variable 3.5 mph
(Variable 6 kph)
- 10SM
18:53
Overcast
46°F / 8°C 30°F / -1°C 53% 30.21 in
(1023 mb)
Variable 5.8 mph
(Variable 9 kph)
- 10SM
17:53
Overcast
46°F / 8°C 34°F / 1°C 62% 30.21 in
(1023 mb)
S 4.6 mph
(S 7 kph)
0.00 in
(0.00 mm)
10SM
16:53
Overcast
Light Rain
46°F / 8°C 34°F / 1°C 62% 30.21 in
(1023 mb)
S 8.1 mph
(S 13 kph)
0.00 in
(0.00 mm)
10SM
15:53
Overcast
48°F / 9°C 28°F / -2°C 46% 30.21 in
(1023 mb)
S 8.1 mph
(S 13 kph)
- 10SM
14:53
Partly Cloudy
52°F / 11°C 21°F / -6°C 30% 30.21 in
(1023 mb)
S 11.5 mph
(S 19 kph)
- 10SM
13:53
Mostly Cloudy
54°F / 12°C 16°F / -9°C 22% 30.24 in
(1024 mb)
S 10.4 mph
(S 17 kph)
- 10SM
12:53
Partly Cloudy
55°F / 13°C 16°F / -9°C 21% 30.24 in
(1024 mb)
S 10.4 mph
(S 17 kph)
- 10SM
11:53
Clear
57°F / 14°C 23°F / -5°C 27% 30.24 in
(1024 mb)
S 10.4 mph
(S 17 kph)
- 10SM
10:53
Mostly Cloudy
55°F / 13°C 28°F / -2°C 36% 30.24 in
(1024 mb)
S 10.4 mph
(S 17 kph)
- 10SM
09:53
Partly Cloudy
52°F / 11°C 36°F / 2°C 54% 30.24 in
(1024 mb)
SSE 9.2 mph
(SSE 15 kph)
- 10SM
08:53
Clear
48°F / 9°C 37°F / 3°C 66% 30.24 in
(1024 mb)
SE 4.6 mph
(SE 7 kph)
- 10SM
07:53
Clear
45°F / 7°C 39°F / 4°C 81% 30.24 in
(1024 mb)
SSE 5.8 mph
(SSE 9 kph)
- 10SM
06:53
Clear
41°F / 5°C 37°F / 3°C 87% 30.24 in
(1024 mb)
SE 4.6 mph
(SE 7 kph)
- 10SM
05:53
Clear
37°F / 3°C 36°F / 2°C 93% 30.24 in
(1024 mb)
Calm - 10SM
04:53
Clear
36°F / 2°C 34°F / 1°C 93% 30.24 in
(1024 mb)
SE 3.5 mph
(SE 6 kph)
- 10SM
03:53
Clear
36°F / 2°C 36°F / 2°C 100% 30.21 in
(1023 mb)
SE 3.5 mph
(SE 6 kph)
- 10SM
02:53
Clear
37°F / 3°C 36°F / 2°C 93% 30.21 in
(1023 mb)
Calm - 10SM
01:53
Clear
37°F / 3°C 36°F / 2°C 93% 30.24 in
(1024 mb)
Calm - 10SM
00:53
Clear
39°F / 4°C 36°F / 2°C 87% 30.24 in
(1024 mb)
Calm - 10SM
Time Weather Temperature Dewpoint Humidity Pressure Winds Precip Visibility


Weather for websites

WeatherForYou.com, LLC is not responsible for any damages or problems caused by this service. Current weather conditions are obtained from the closest station including government and personal stations which may have varying degrees of accuracy. Weather forecasts are derived from the NOAA NDFD. Like all things, this site belongs to Jesus Christ... He just trusts us to maintain it. If you have any questions or comments email webmaster@weatherforyou.com

Copyright © 2016, WeatherForYou.com LLC. All rights reserved.